BLACK04 LPPT-LPOV

Flight info

Callsign BLACK04
Flight time N/A
Altitude 2500
Route PICHE DCT FGFOZ DCT AVEIR
Aircraft UH60/L-TU/N

Departure

Time 2026-05-05 16:59
Airport Lisbon Humberto Delgado Airport (LPPT)

Arrival

Time N/A
Airport Ovar Air Base (LPOV)
Time Latitude Longitude Altitude Speed Heading
2026-05-05 16:31 38.78134 -9.12955 333 ft 0 kts 129°
2026-05-05 16:39 38.78133 -9.12953 333 ft 2 kts 135°
2026-05-05 16:39 38.78112 -9.12979 333 ft 7 kts 236°
2026-05-05 16:39 38.78093 -9.13015 333 ft 0 kts 235°
2026-05-05 16:39 38.78093 -9.13016 333 ft 0 kts 235°
2026-05-05 16:40 38.78090 -9.13022 333 ft 3 kts 235°
2026-05-05 16:41 38.78071 -9.13057 332 ft 5 kts 236°
2026-05-05 16:41 38.78065 -9.13068 333 ft 0 kts 236°
2026-05-05 16:41 38.78065 -9.13069 333 ft 2 kts 232°
2026-05-05 16:42 38.78018 -9.13074 332 ft 12 kts 174°
2026-05-05 16:42 38.77909 -9.13047 326 ft 17 kts 168°
2026-05-05 16:42 38.77804 -9.13033 325 ft 14 kts 202°
2026-05-05 16:42 38.77764 -9.13127 332 ft 16 kts 260°
2026-05-05 16:43 38.77737 -9.13293 330 ft 21 kts 258°
2026-05-05 16:43 38.77647 -9.13407 340 ft 16 kts 262°
2026-05-05 16:43 38.77691 -9.13475 347 ft 10 kts 346°
2026-05-05 16:43 38.77783 -9.13500 348 ft 17 kts 348°
2026-05-05 16:44 38.77911 -9.13534 354 ft 18 kts 345°
2026-05-05 16:44 38.77952 -9.13546 357 ft 0 kts 349°
2026-05-05 16:44 38.77981 -9.13553 357 ft 9 kts 348°
2026-05-05 16:44 38.78065 -9.13577 363 ft 15 kts 348°
2026-05-05 16:45 38.78151 -9.13578 364 ft 4 kts 12°
2026-05-05 16:45 38.78163 -9.13570 362 ft 6 kts 25°
2026-05-05 16:45 38.78168 -9.13567 362 ft 0 kts 25°
2026-05-05 16:46 38.78212 -9.13517 366 ft 21 kts 49°
2026-05-05 16:46 38.78113 -9.13439 359 ft 18 kts 195°
2026-05-05 16:46 38.78046 -9.13446 355 ft 11 kts 198°
2026-05-05 16:46 38.77939 -9.13467 352 ft 20 kts 206°
2026-05-05 16:47 38.77928 -9.13473 354 ft 0 kts 204°
2026-05-05 16:54 38.77912 -9.13482 359 ft 6 kts 204°
2026-05-05 16:54 38.77871 -9.13515 356 ft 7 kts 277°
2026-05-05 16:54 38.77908 -9.13535 354 ft 7 kts 348°
2026-05-05 16:54 38.77949 -9.13545 358 ft 0 kts 349°
2026-05-05 16:58 38.77971 -9.13550 356 ft 8 kts 348°
2026-05-05 16:58 38.78059 -9.13576 364 ft 15 kts 347°
2026-05-05 16:58 38.78145 -9.13587 362 ft 7 kts 24°
2026-05-05 16:58 38.78146 -9.13586 362 ft 0 kts 24°
2026-05-05 16:59 38.78147 -9.13585 366 ft 2 kts 25°
2026-05-05 16:59 38.78271 -9.13512 386 ft 56 kts 14°
2026-05-05 16:59 38.78915 -9.13158 831 ft 129 kts 18°
2026-05-05 16:59 38.79837 -9.12674 1097 ft 154 kts 17°
2026-05-05 17:00 38.80874 -9.12138 1461 ft 167 kts 14°
2026-05-05 17:00 38.81972 -9.11543 1520 ft 172 kts 17°
2026-05-05 17:00 38.83053 -9.10969 1897 ft 164 kts 17°
2026-05-05 17:00 38.84152 -9.10811 2303 ft 158 kts 355°
2026-05-05 17:01 38.85220 -9.11045 2597 ft 159 kts 335°
2026-05-05 17:01 38.86151 -9.11813 2622 ft 158 kts 327°
2026-05-05 17:01 38.87069 -9.12571 2547 ft 157 kts 327°
2026-05-05 17:01 38.87997 -9.13297 2539 ft 154 kts 331°
2026-05-05 17:02 38.88945 -9.13922 2547 ft 154 kts 332°
2026-05-05 17:02 38.89919 -9.14529 2497 ft 156 kts 334°
2026-05-05 17:02 38.90889 -9.15127 2477 ft 153 kts 331°
2026-05-05 17:02 38.91481 -9.15628 2424 ft 154 kts 324°
2026-05-05 17:03 38.92366 -9.16425 2316 ft 157 kts 325°
2026-05-05 17:03 38.93265 -9.17179 2317 ft 152 kts 326°
2026-05-05 17:03 38.94168 -9.17867 2398 ft 150 kts 329°
2026-05-05 17:03 38.95123 -9.18451 2321 ft 157 kts 338°
2026-05-05 17:04 38.96167 -9.18880 2214 ft 155 kts 342°
2026-05-05 17:04 38.97189 -9.19252 2292 ft 151 kts 341°
2026-05-05 17:04 38.98215 -9.19600 2366 ft 157 kts 342°
2026-05-05 17:04 38.99287 -9.20012 2184 ft 165 kts 343°
2026-05-05 17:05 39.00431 -9.20318 2301 ft 172 kts 348°
2026-05-05 17:05 39.01626 -9.20561 2199 ft 173 kts 349°
2026-05-05 17:05 39.02780 -9.20904 2203 ft 168 kts 343°
2026-05-05 17:05 39.03885 -9.21416 2169 ft 171 kts 339°
2026-05-05 17:06 39.05039 -9.21905 2078 ft 178 kts 341°
2026-05-05 17:06 39.06217 -9.22391 2016 ft 173 kts 339°
2026-05-05 17:06 39.07368 -9.22848 2081 ft 176 kts 344°
2026-05-05 17:06 39.08550 -9.23211 2001 ft 174 kts 345°
2026-05-05 17:07 39.09742 -9.23486 1992 ft 172 kts 349°
2026-05-05 17:07 39.10926 -9.23695 2102 ft 171 kts 350°
2026-05-05 17:07 39.12084 -9.24010 2237 ft 169 kts 345°
2026-05-05 17:07 39.13221 -9.24439 2284 ft 172 kts 341°
2026-05-05 17:08 39.14363 -9.24882 2323 ft 172 kts 341°
2026-05-05 17:08 39.15505 -9.25373 2344 ft 173 kts 339°
2026-05-05 17:08 39.16638 -9.25900 2308 ft 175 kts 338°
2026-05-05 17:08 39.17788 -9.26458 2231 ft 177 kts 339°
2026-05-05 17:09 39.18928 -9.27049 2136 ft 178 kts 338°
2026-05-05 17:09 39.20039 -9.27698 2288 ft 172 kts 335°
2026-05-05 17:09 39.21135 -9.28322 2396 ft 173 kts 335°
2026-05-05 17:09 39.22229 -9.28962 2497 ft 172 kts 334°
2026-05-05 17:10 39.23303 -9.29642 2634 ft 171 kts 332°
2026-05-05 17:10 39.24356 -9.30338 2820 ft 169 kts 332°
2026-05-05 17:10 39.25402 -9.31055 2921 ft 175 kts 333°
2026-05-05 17:10 39.26484 -9.31833 2738 ft 178 kts 332°
2026-05-05 17:11 39.27656 -9.32297 2719 ft 177 kts 347°
2026-05-05 17:11 39.28883 -9.32141 2601 ft 185 kts 15°
2026-05-05 17:11 39.30043 -9.31403 2565 ft 186 kts 24°
2026-05-05 17:11 39.31186 -9.30635 2543 ft 185 kts 24°
2026-05-05 17:12 39.32294 -9.29797 2594 ft 183 kts 28°
2026-05-05 17:12 39.33351 -9.28887 2667 ft 184 kts 30°
2026-05-05 17:12 39.34383 -9.27929 2726 ft 185 kts 32°
2026-05-05 17:12 39.35441 -9.26963 2802 ft 184 kts 30°
2026-05-05 17:13 39.36500 -9.26019 2805 ft 187 kts 30°
2026-05-05 17:13 39.37587 -9.25062 2687 ft 189 kts 30°
2026-05-05 17:13 39.38724 -9.24247 2571 ft 187 kts 21°
2026-05-05 17:13 39.39880 -9.23498 2516 ft 186 kts 24°
2026-05-05 17:14 39.41006 -9.22656 2477 ft 185 kts 26°
2026-05-05 17:14 39.42089 -9.21746 2468 ft 185 kts 30°
2026-05-05 17:14 39.43143 -9.20806 2509 ft 183 kts 30°
2026-05-05 17:14 39.44180 -9.19888 2579 ft 181 kts 29°
2026-05-05 17:15 39.45236 -9.18980 2646 ft 181 kts 28°
2026-05-05 17:15 39.46281 -9.18105 2672 ft 184 kts 29°
2026-05-05 17:15 39.47393 -9.17216 2532 ft 189 kts 26°
2026-05-05 17:15 39.48504 -9.16370 2488 ft 184 kts 27°
2026-05-05 17:16 39.49617 -9.15542 2534 ft 181 kts 25°
2026-05-05 17:16 39.50677 -9.14693 2659 ft 183 kts 31°
2026-05-05 17:16 39.51681 -9.13653 2723 ft 184 kts 34°
2026-05-05 17:16 39.52696 -9.12610 2621 ft 190 kts 33°
2026-05-05 17:17 39.53756 -9.11587 2522 ft 189 kts 32°
2026-05-05 17:17 39.54771 -9.10538 2598 ft 187 kts 34°
2026-05-05 17:17 39.55860 -9.09575 2496 ft 190 kts 28°
2026-05-05 17:17 39.56983 -9.08666 2390 ft 189 kts 27°
2026-05-05 17:18 39.58115 -9.07853 2356 ft 186 kts 22°
2026-05-05 17:18 39.59112 -9.06745 2224 ft 199 kts 47°
2026-05-05 17:18 39.60098 -9.05598 2061 ft 187 kts 25°
2026-05-05 17:18 39.61252 -9.04954 2281 ft 176 kts 16°
2026-05-05 17:19 39.62461 -9.04559 2294 ft 181 kts
2026-05-05 17:19 39.63691 -9.04259 2335 ft 179 kts
2026-05-05 17:19 39.64901 -9.04027 2337 ft 178 kts
2026-05-05 17:19 39.66139 -9.03904 2311 ft 179 kts
2026-05-05 17:20 39.67391 -9.03785 2314 ft 178 kts
2026-05-05 17:20 39.68631 -9.03612 2218 ft 181 kts
2026-05-05 17:20 39.69878 -9.03446 2110 ft 181 kts
2026-05-05 17:20 39.71113 -9.03115 2029 ft 182 kts
2026-05-05 17:21 39.72313 -9.02686 2187 ft 181 kts 13°
2026-05-05 17:21 39.73519 -9.02144 2204 ft 182 kts 14°
2026-05-05 17:21 39.74721 -9.01724 2269 ft 178 kts 10°
2026-05-05 17:22 39.77083 -9.00806 2502 ft 178 kts 14°
2026-05-05 17:22 39.78272 -9.00327 2502 ft 181 kts 13°
2026-05-05 17:22 39.79481 -8.99855 2499 ft 183 kts 13°
2026-05-05 17:22 39.80694 -8.99376 2489 ft 183 kts 13°
2026-05-05 17:23 39.81933 -8.98969 2456 ft 181 kts 11°
2026-05-05 17:23 39.83099 -8.98457 2548 ft 177 kts 16°
2026-05-05 17:23 39.84294 -8.97880 2440 ft 188 kts 18°
2026-05-05 17:23 39.85544 -8.97397 2309 ft 181 kts 13°
2026-05-05 17:24 39.86727 -8.96961 2564 ft 179 kts 14°
2026-05-05 17:24 39.87938 -8.96430 2535 ft 185 kts 17°
2026-05-05 17:24 39.89162 -8.95857 2454 ft 188 kts 17°